Location: Unspecified
(0.0000°N, 0.0000°E)
Time: 13:44:31
(UTC+00:00)

Vanguard 1 Rocket - Pass Details

Date: 11 February 2023
Orbit: 652 x 4223 km, 34.3° (Epoch: 30 March)

Event Time Altitude Azimuth Distance (km) Brightness Sun altitude
Rises 18:04:26 0° 306° (NW) 7,102 12.6 2.4°
Reaches altitude 10° 18:08:33 10° 305° (NW) 6,427 12.4 1.4°
Maximum altitude 18:32:29 84° 219° (SW) 4,236 10.8 -4.4°
Drops below altitude 10° 18:57:03 10° 131° (SE) 6,549 11.4 -10.4°
Sets 19:01:18 0° 129° (SE) 7,232 11.6 -11.4°
